Overview Statistics Trail Chart Weather Telemetry Raw packets
 

This is the latest recevied weather packets stored in our database for station/object TA7O-10. If no packets are shown the sender has not sent any weather packets the latest 10 day(s).

<< 4 5 6 7 8 9 10 >>
Time Temp. Humidity Pressure Rain* Wind** Luminosity Snow
1788535917 30° C 45% 1003.2 hPa - - - -
1788535017 30° C 45% 1003 hPa - - - -
1788534117 30° C 45% 1003 hPa - - - -
1788533217 27.78° C 45% 1000.2 hPa - - - -
1788532317 30° C 45% 1002.9 hPa - - - -
1788531416 30° C 45% 1002.8 hPa - - - -
1788530517 30° C 45% 1002.6 hPa - - - -
1788529616 30° C 45% 1002.7 hPa - - - -
1788528716 30° C 46% 1002.7 hPa - - - -
1788527816 29.44° C 46% 1002.6 hPa - - - -
1788526916 30° C 45% 1002.4 hPa - - - -
1788526016 30° C 45% 1002.5 hPa - - - -
1788525116 30° C 45% 1002.5 hPa - - - -
1788524216 30° C 45% 1002.5 hPa - - - -
1788523316 30° C 45% 1002.5 hPa - - - -
1788522416 25.56° C 45% 996 hPa - - - -
1788521516 30° C 46% 1003.6 hPa - - - -
1788520616 30° C 45% 1002.4 hPa - - - -
1788519715 30° C 45% 1002.4 hPa - - - -
1788518815 30° C 45% 1002.4 hPa - - - -
1788517915 30° C 45% 1002.3 hPa - - - -
1788517015 30° C 45% 1002.3 hPa - - - -
1788516115 30° C 45% 1002.3 hPa - - - -
1788515215 30° C 45% 1002.3 hPa - - - -
1788514315 30° C 45% 1002.2 hPa - - - -

* Rain since midnight (hover to see other rain measurements)
** Current wind speed in m/s (hover to see current wind gust speed)